#timestamp,LO_Frequency,Hit,StdDev 
1578009615.6,286047010.0,P
1578009635.4,286047010.3,P
1578009655.2,286047008.0,Y
1578009675.1,286047001.0,P
1578009676.0,286047001.0,N
1578009695.8,286047002.4,N
1578009715.7,286046997.4,N
1578009735.5,286046993.4,N
1578009755.3,286046993.5,N
1578009805.2,286046990.0,E
1578009815.1,286046988.6,N
1578009835.9,286046990.3,P
1578009855.7,286046993.6,P
1578009875.5,286046990.5,Y
1578009895.4,286046999.4,P
1578009915.2,286047004.1,N
1578009935.1,286047008.8,N
1578009936.0,286047008.8,N
1578009955.8,286047008.7,N
1578009975.6,286047011.8,N
1578009995.5,286047015.9,N
1578010015.3,286047018.2,N
1578010035.1,286047020.1,N
1578010055.9,286047018.9,N
1578010075.7,286047022.9,N
1578010095.6,286047023.3,N
1578010115.4,286047020.5,N
1578010135.2,286047023.3,N
1578010155.1,286047024.6,N
1578010156.0,286047024.6,N
1578010175.8,286047021.8,N
1578010195.6,286047021.9,N
1578010215.5,286047023.6,N
1578010235.3,286047020.5,N
1578010255.2,286047023.9,N
1578010275.9,286047022.0,N
1578010295.7,286047017.8,N
1578010315.6,286047014.1,N
1578010335.4,286047014.6,N
1578010355.2,286047010.5,N
1578010375.1,286047005.0,N
1578010376.0,286047011.9,N
1578010395.8,286047001.5,N
1578010415.7,286047001.6,N
1578010435.5,286047001.4,N
1578010455.3,286047006.7,N
1578010475.2,286047003.0,N
1578010495.9,286047002.3,N
1578010515.7,286046999.2,N
1578010535.6,286046995.0,N
1578010555.4,286046995.0,N
1578010575.3,286046999.0,N
1578010595.1,286047000.6,N
1578010626.0,286047000.5,E
1578010635.0,286047000.6,N
1578010635.9,286047000.6,P
1578010655.8,286047003.3,P
1578010675.6,286047005.6,Y
1578010695.5,286047008.4,P
1578010715.3,286047008.8,N
1578010735.1,286047006.7,N
1578010755.9,286047012.6,Y
1578010775.7,286047007.8,P
1578010795.6,286047010.4,P
1578010815.4,286047007.9,P
1578010835.2,286047007.9,Y
1578010855.1,286047002.8,P
1578010856.0,286047002.8,N
1578010875.8,286046999.7,N
1578010895.7,286046998.1,N
1578010915.5,286046999.5,N
1578010935.3,286046999.1,N
1578010955.2,286046997.9,N
1578010975.9,286046992.4,N
1578010995.7,286046997.7,N
1578011015.6,286047002.5,N
1578011035.4,286047005.8,N
1578011055.2,286047008.6,N
1578011075.1,286047008.1,N
1578011076.0,286047008.1,N
1578011095.8,286047003.9,N
1578011115.7,286047003.4,N
1578011135.5,286047005.3,N
1578011155.3,286047007.4,N
1578011175.2,286047004.0,N
1578011195.0,286047003.1,N
1578011195.9,286047003.1,N
1578011215.8,286047001.3,N
1578011235.6,286047002.9,N
1578011255.4,286047003.0,N
1578011275.3,286047000.7,N
1578011295.1,286047003.3,N
1578011315.8,286047008.6,N
1578011335.7,286047011.0,N
1578011355.5,286047008.4,N
1578011375.3,286047007.4,N
1578011395.2,286047008.2,N
1578011415.0,286047010.8,N
1578011415.9,286047010.8,N
1578011435.8,286047006.5,N
1578011455.6,286047004.9,N
1578011475.4,286047008.4,N
1578011495.3,286047012.3,N
1578011515.1,286047010.1,N
1578011535.9,286047008.3,N
1578011555.7,286047007.8,N
1578011575.5,286047002.8,N
1578011595.4,286046999.6,N
1578011615.2,286047002.8,N
1578011635.0,286046999.5,N
1578011635.9,286046999.5,N
1578011655.8,286046999.0,N
1578011705.6,286046993.8,E
1578011715.6,286046994.0,N
1578011735.4,286046993.8,P
1578011755.2,286046993.7,P
1578011775.1,286046992.3,Y
1578011776.0,286046992.3,P
1578011795.8,286046998.2,N
1578011815.7,286047000.6,N
1578011835.5,286047000.4,N
1578011855.3,286046999.8,N
1578011875.2,286047001.3,N
1578011895.0,286047001.2,N
1578011895.9,286047001.2,N
1578011915.7,286046996.0,N
1578011935.6,286046995.8,N
1578011955.4,286046995.1,N
1578011975.3,286046996.7,N
1578011995.1,286046995.0,N
1578011996.0,286046995.0,N
1578012015.8,286046994.0,N
1578012035.7,286046995.7,N
1578012055.5,286046995.7,N
1578012075.3,286046997.2,N
1578012095.2,286046995.1,N
1578012115.0,286046995.4,N
1578012115.9,286046995.4,N
1578012135.8,286046996.2,N
1578012155.6,286046994.6,N
1578012175.4,286046994.1,N
1578012195.3,286046996.4,N
1578012215.1,286046992.0,Y
1578012235.9,286046996.3,P
1578012255.7,286046994.5,P
1578012275.5,286046993.5,P
1578012295.4,286046998.9,N
1578012315.2,286047000.3,N
1578012335.0,286047004.1,N
1578012335.9,286047004.1,N
1578012355.8,286047000.0,N
1578012375.6,286046996.8,N
1578012395.5,286046997.8,N
1578012415.3,286046995.0,N
1578012435.1,286046994.9,N
1578012455.9,286046998.2,N
1578012475.7,286047000.7,N
1578012495.5,286046998.1,N
1578012515.4,286046998.7,N
1578012535.2,286047000.3,N
1578012555.1,286047001.4,N
1578012556.0,286047001.4,N
1578012575.8,286047008.0,N
1578012595.6,286047007.8,N
1578012615.5,286047007.9,N
1578012635.3,286047011.9,N
1578012655.1,286047015.1,Y
1578012675.9,286047010.5,P
1578012695.7,286047009.0,N
1578012715.6,286047010.8,N
1578012735.4,286047011.9,N
1578012755.2,286047002.6,N
1578012775.1,286047008.7,N
1578012776.0,286047008.7,N
1578012795.8,286047011.1,N
1578012815.6,286047008.0,N
1578012835.5,286047001.5,N
1578012855.3,286047002.7,N
1578012875.2,286047000.0,N
1578012895.9,286046998.1,N
1578012915.7,286046998.9,N
1578012935.6,286047000.1,N
1578012955.4,286047003.4,N
1578012975.2,286046998.9,N
1578012995.1,286046999.9,N
1578012996.0,286046999.9,N
1578013015.8,286047000.4,N
1578013035.7,286046998.4,N
1578013055.5,286046996.7,N
1578013075.3,286046993.9,N
1578013095.2,286046993.8,N
1578013115.0,286046995.3,N
1578013115.9,286046995.3,N
1578013135.7,286046996.3,N
1578013155.6,286046996.2,N
1578013175.4,286046997.7,N
1578013195.3,286046995.3,N
